sat.trackr.live / text

‹ back to catalog

STARLINK-11149 [DTC]

NORAD 60041 · 2024-112D

PAYLOAD ACTIVE UNKNOWN

§ Identity

Operator
Country
US
Launch date
2024-06-08
Launch site
AFWTR
Launch vehicle
Mass (kg)
RCS (m²)

Purposes: comms

External: N2YO · Heavens-Above · Gunter

§ Orbital elements

Epoch: 2026-09-21T15:08:21.674688Z

Period
91.74 min
Inclination
53.1590°
Eccentricity
0.0000657
Mean motion
15.69703805 rev/d
Perigee alt
359.3 km
Apogee alt
360.2 km
Semi-major
6,737.9 km
B*
8.3382e-7
RAAN
20.5084°
Arg perigee
76.7997°
Mean anomaly
283.3094°
Rev number
13,175

§ Raw data

STARLINK-11149 [DTC]1 60041U 24112D   26264.63080642 -.00000487  00000+0  83382-6 0  99992 60041  53.1590  20.5084 0000657  76.7997 283.3094 15.69703805131758

JSON: /api/v1/satellites/60041 · /tle

For live sub-satellite position, see the globe view (requires WebGL).

§ Visibility from observer

Set your observer location to see the next 7 days of passes ≥ 10°. The values pass through the URL so the page stays shareable.

No JS? Fill the form by hand. The geolocation button needs JavaScript.